{"data":{"norad_id":68888,"intl_designator":"2026-095AA","name":"KUIPER-00511","alt_names":[],"object_type":"PAYLOAD","status":"ACTIVE","operator":null,"country":"US","launch_date":"2026-04-28","launch_site_code":"AFETR","launch_vehicle":null,"mission":null,"orbit_class":"UNKNOWN","rcs_meters":null,"size_class":null,"mass_kg":null,"dimensions":null,"purposes":[],"wikipedia_slug":null,"has_3d_model":false,"image_url":null,"decayed_at":null,"tle_current":{"epoch":"2026-05-25T00:23:50.383968Z","epoch_age_seconds":84341,"freshness":"FRESH","line1":"1 68888U 26095AA  26145.01655537  .00024313  00000+0  66233-3 0  9995","line2":"2 68888  51.8794 354.4902 0006952 205.6766 154.3877 15.37331832  4167","mean_motion":15.37331832,"eccentricity":0.0006952,"inclination_deg":51.8794,"raan_deg":354.4902,"arg_perigee_deg":205.6766,"mean_anomaly_deg":154.3877,"bstar":0.00066233,"rev_number":416,"period_min":93.668781848264,"perigee_km":449.25336550417,"apogee_km":458.75277305649,"semimajor_km":6832.1400692803,"source":"CELESTRAK","updated_at":"2026-05-25T13:38:08.650705Z"}}}